Location: Foulognes
(49.1413°N, 0.8183°W)
Time: 08:56:59
(UTC+00:00)

STARLINK-41 - Pass Details

Date: 21 October 2019
Orbit: 549 x 551 km, 53.0° (Epoch: 19 November)

Event Time Altitude Azimuth Distance (km) Brightness Sun altitude
Rises 18:44:53 0° 283° (WNW) 2,719 8.8 -17.4°
Reaches altitude 10° 18:47:11 10° 289° (WNW) 1,825 7.4 -17.8°
Maximum altitude 18:51:13 49° 5° (N) 711 4.1 -18.5°
Enters shadow 18:52:22 37° 53° (NE) 858 4.2 -18.7°
